[Iaude] MPEC F36: 2024 FW [a=1.94,e=0.41,i=1.4,H=25.4]
    mpec at cfa.harvard.edu 
    mpec at cfa.harvard.edu
       
    Tue Mar 19 16:28:15 EDT 2024
    
    
  
M.P.E.C. 2024-F36                                Issued 2024 March 19, 20:26 UT
     The Minor Planet Electronic Circulars contain information on unusual
         minor planets, routine data on comets and natural satellites,
         and occasional editorial announcements.  They are published
    on behalf of Division F of the International Astronomical Union by the
          Minor Planet Center, Smithsonian Astrophysical Observatory,
                          Cambridge, MA 02138, U.S.A.
			  
             Prepared using the Tamkin Foundation Computer Network
                              MPC at CFA.HARVARD.EDU
            URL https://www.minorplanetcenter.net/    ISSN 1523-6714
                                    2024 FW                                     
Observations:
     K24F00W  C2024 03 14.35680 11 50 52.04 +02 56 29.1          22.7 GVEF036V00
     K24F00W  C2024 03 14.36242 11 50 52.58 +02 56 27.6          22.2 GVEF036V00
     K24F00W  C2024 03 14.36802 11 50 53.13 +02 56 26.9          22.0 GVEF036V00
     K24F00W* C2024 03 17.42430811 56 30.149+02 46 27.18         22.17wXEF036F51
     K24F00W  C2024 03 17.43648411 56 31.211+02 46 24.82         22.13wXEF036F51
     K24F00W  C2024 03 17.44865011 56 32.266+02 46 22.34         22.54wXEF036F51
     K24F00W  C2024 03 17.46075611 56 33.327+02 46 19.95         22.11wXEF036F51
     K24F00W  C2024 03 18.45193311 58 17.891+02 43 00.34         22.13GVEF036F51
     K24F00W  C2024 03 18.45275311 58 17.974+02 43 00.28         22.24GVEF036F51
     K24F00W 1C2024 03 19.41094411 59 57.610+02 39 46.11         21.63GVEF036T12
     K24F00W 1C2024 03 19.41804411 59 58.194+02 39 44.74         21.82GVEF036T12
Observer details:
F51 Pan-STARRS 1, Haleakala.  Observers J. Herman, T. Lowe, P. Minguez, A.
    Schultz, I. Smith.  Measurers K. Chambers, T. de Boer, J. Fairlamb, H.
    Gao, M. Huber, C.-C. Lin, E. Magnier, Y. Ramanjooloo, R. Wainscoat, R.
    Weryk.  1.8-m Ritchey-Chretien + CCD.
T12 University of Hawaii 88-inch telescope, Maunakea.  Observer J. Fairlamb.
    Measurers R. Weryk, J. Fairlamb, Y. Ramanjooloo, R. Wainscoat.  2.24-m
    f/10.1 reflector + CCD.
V00 Kitt Peak-Bok.  Observer R. A. Mastaler.  Measurers B. Gray, D. Rankin, F.
    C. Shelly.  2.25-m reflector + mosaic CCD.
Orbital elements:
2024 FW                                                  Earth MOID = 0.1619 AU
Epoch 2024 Mar. 31.0 TT = JDT 2460400.5                 MPC                     
M  13.06027              (2000.0)            P               Q                  
n   0.36369146     Peri.  352.93415     -0.91562551     -0.40197072             
a   1.9437809      Node   163.35905     +0.37004864     -0.84949195             
e   0.4074810      Incl.    1.40727     +0.15714300     -0.34173524             
P   2.71           H   25.46          G   0.15           U   9                  
Residuals in seconds of arc
240314 V00  0.1-  0.1+    240317 F51  0.0   0.1+    240318 F51  0.1+  0.1+
240314 V00  0.1-  0.3-    240317 F51  0.1-  0.0     240319 T12  0.0   0.1-
240314 V00  0.1+  0.2+    240317 F51  0.0   0.1+    240319 T12  0.1-  0.0
240317 F51  0.0   0.0     240318 F51  0.1-  0.0
Ephemeris:
2024 FW                  a,e,i = 1.94, 0.41, 1                   q = 1.1517
Date    TT    R. A. (2000) Decl.     Delta      r    Elong.  Phase     V
2024 02 18    10 52 38.6 +04 52 20   0.1697  1.1534   165.7    12.2    22.7
...
2024 03 04    11 29 18.5 +03 34 02   0.1651  1.1553   172.0     6.8    22.4
...
2024 03 12    11 46 19.2 +03 04 45   0.1713  1.1646   175.7     3.7    22.3
...
2024 03 18    11 57 30.6 +02 44 47   0.1800  1.1751   177.6     2.0    22.3
2024 03 19    11 59 14.8 +02 41 24   0.1818  1.1772   177.6     2.0    22.4
2024 03 20    12 00 56.8 +02 38 00   0.1836  1.1793   177.5     2.1    22.4
...
2024 03 26    12 10 25.1 +02 16 26   0.1969  1.1937   174.9     4.2    22.7
...
2024 04 03    12 21 19.2 +01 43 24   0.2199  1.2171   170.1     8.1    23.2
...
2024 04 18    12 38 32.6 +00 21 11   0.2808  1.2718   160.2    15.5    24.1
A. U. Tomatic                (C) Copyright 2024 MPC           M.P.E.C. 2024-F36
    
    
More information about the Iaude
mailing list